Regional Weather Roundup
Issued by NWS

Home | Current Version | Previous Version | Graphics & Text | Print | Product List | Glossary On
Versions: 1 2 3 4 5 6 7 8 9 10 11 12 13 14 15 16 17 18 19 20 21 22 23 24 25 26 27 28 29 30 31 32 33 34 35 36 37 38 39 40 41 42 43 44 45 46 47 48 49 50
000
ASUS43 KMPX 191210
RWRMN
WEATHER ROUNDUP FOR MINNESOTA
NATIONAL WEATHER SERVICE TWIN CITIES/CHANHASSEN MN
700 AM CDT SUN APR 19 2015


NOTE: "FAIR" INDICATES FEW OR NO CLOUDS BELOW 12,000 FEET WITH NO
SIGNIFICANT WEATHER AND/OR OBSTRUCTIONS TO VISIBILITY. N/A MEANS
CURRENT SKY AND/OR WEATHER CONDITIONS ARE NOT AVAILABLE.

MNZ060>063-068>070-191300-
   Twin Cities Metro

CITY           SKY/WX    TMP DP  RH WIND       PRES   REMARKS
TWIN CITIES    LGT RAIN  48  43  82 SE9       29.74F
6HR MIN TEMP:  48; 6HR MAX TEMP:  52; 6HR PCP:  0.03;

ST PAUL        CLOUDY    48  43  82 SE13      29.75F
CRYSTAL        CLOUDY    49  44  83 SE8       29.73F
BLAINE         DRIZZLE   48  46  93 SE7       29.74F
LAKEVILLE      DRIZZLE   46  45  93 SE6       29.74S
EDEN PRAIRIE   LGT RAIN  49  45  86 SE8       29.72F FOG
6HR MIN TEMP:  49; 6HR MAX TEMP:  53; 6HR PCP:  0.05;

SOUTH ST PAUL  CLOUDY    48  43  81 SE5       29.75S
LAKE ELMO      LGT RAIN  45  43  93 E6        29.76F
$$
MNZ001>005-007-008-013>017-022>024-027-028-191300-
   Northwest Minnesota

CITY           SKY/WX    TMP DP  RH WIND       PRES   REMARKS
BEMIDJI        RAIN      39  38  97 E6        29.72S
HALLOCK        LGT RAIN  46  45  93 N8        29.73S
ROSEAU         DRIZZLE   45  39  81 SE5       29.74S
WARROAD        DRIZZLE   43  37  81 SE6       29.75F
THIEF RVR FALL CLOUDY    46  43  87 E3        29.73F
CROOKSTON      LGT RAIN  46  46 100 CALM      29.73S
FOSSTON        RAIN      43  39  87 E3        29.72S
DETROIT LAKES  CLOUDY    45  43  93 NE3       29.69F
MOORHEAD       DRIZZLE   46  46 100 N7        29.71S
PARK RAPIDS    LGT RAIN  42  39  89 NE9       29.69S FOG
MAHNOMEN       CLOUDY    44  43  97 CALM      29.70S
$$
MNZ006-009>011-018-025>026-191300-
   North Central Minnesota

CITY           SKY/WX    TMP DP  RH WIND       PRES   REMARKS
BAUDETTE       LGT RAIN  39  37  92 SE7       29.76F
FLAG ISLAND    LGT RAIN  39  34  81 SE8       29.75F
INTL FALLS     LGT RAIN  39  38  96 SE6       29.78F FOG
6HR MIN TEMP:  39; 6HR MAX TEMP:  45; 6HR PCP:  0.08;

WASKISH        RAIN      39  37  93 CALM      29.74F
BIG FORK       LGT RAIN  39  37  93 SE6       29.75F
LONGVILLE      LGT RAIN  37  37 100 E5        29.71F
GRAND RAPIDS   CLOUDY    37  34  87 E5        29.74F
ORR            RAIN      37  36  93 SE5       29.75F
COOK           RAIN      37  37 100 E3        29.78F
WALKER         RAIN      40  38  95 E8G16     29.71S
$$
MNZ012-019>021-037-191300-
   Northeast Minnesota

CITY           SKY/WX    TMP DP  RH WIND       PRES   REMARKS
DULUTH         LGT RAIN  38  35  89 E15       29.78F
6HR MIN TEMP:  38; 6HR MAX TEMP:  41; 6HR PCP:  0.19;

ELY            RAIN      36  36 100 E6        29.79F
HIBBING        RAIN      37  35  92 E7        29.77F FOG
EVELETH        RAIN      36  36 100 E5        29.78F
DULUTH HARBOR  RAIN      37  36  93 NE20      29.82F
TWO HARBORS    DRIZZLE   39  34  81 NE7       29.80F
SILVER BAY     RAIN      36  34  93 NE7G16    29.83F
GRAND MARAIS     N/A     38  32  79 NE10      29.90F
G MARAIS ARPRT RAIN      34  27  75 E12       29.87F WCI  25
$$
MNZ029>031-032-039>041-046>048-054>057-064-191300-
   West Central Minnesota

CITY           SKY/WX    TMP DP  RH WIND       PRES   REMARKS
FERGUS FALLS   CLOUDY    45  45 100 N7        29.69R
WHEATON        CLOUDY    45  45 100 NW10G16   29.70S
MORRIS         CLOUDY    48  46  93 NW12      29.67R
ALEXANDRIA     LGT RAIN  51  49  92 W9        29.66R FOG
ELBOW LAKE     CLOUDY    46  46 100 NW13      29.65S FOG
WADENA         DRIZZLE   43  43 100 E3        29.65F
GLENWOOD       RAIN      54  52  94 S9        29.65S
APPLETON       MOCLDY    52  48  87 NW12      29.69R
BENSON         DRIZZLE   52  48  87 NW14      29.67R
ORTONVILLE     CLOUDY    48  46  93 NW10G16   29.69R
MADISON        CLOUDY    50  48  93 NW13      29.70R
WILLMAR        CLOUDY    55  55 100 CALM      29.68S FOG
$$
MNZ033>034-036-042>043-049>051-058-059-191300-
   Central Minnesota

CITY           SKY/WX    TMP DP  RH WIND       PRES   REMARKS
ST CLOUD       CLOUDY    47  45  93 SE9       29.69F
6HR MIN TEMP:  47; 6HR MAX TEMP:  50; 6HR PCP:  0.12;

SAUK CENTRE    DRIZZLE   48  47  98 SE10      29.66F
PAYNESVILLE    CLOUDY    47  47 100 E10       29.67F
AITKIN         MIX PCPN  39  34  81 E7        29.71F
PINE RIVER     RAIN      39  39 100 E9        29.73F
BRAINERD       LGT RAIN  42  41  96 SE5       29.69F FOG
STAPLES        DRIZZLE   43  43 100 E5        29.67S
LONG PRAIRIE   RAIN      45  45 100 SE12      29.66F
LITTLE FALLS   DRIZZLE   43  43 100 SE12      29.68F
LITCHFIELD       N/A     54  54 100 SE8       29.68F FOG
BUFFALO        CLOUDY    48  45  88 SE10      29.72F
MAPLE LAKE     CLOUDY    50  48  93 SE6       29.71F
$$
MNZ037-044-045-052-053-191300-
   East Central Minnesota

CITY           SKY/WX    TMP DP  RH WIND       PRES   REMARKS
PRINCETON      CLOUDY    46  43  87 E8        29.72F
MORA           LGT RAIN  37  36  93 E6        29.76F
CAMBRIDGE      LGT RAIN  46  37  71 E5        29.73F
RUSH CITY      LGT RAIN  43  40  90 SE3       29.76F
MOOSE LAKE     RAIN      36  36 100 CALM      29.76S
HINCKLEY       LGT RAIN  43  41  93 CALM      29.77S
CLOQUET        LGT RAIN  37  36  93 E9        29.77F
MCGREGOR       CLOUDY    37  36  93 E6        29.75F
$$
MNZ071>073-080-081-089-090-097-098-191300-
   Southwest Minnesota

CITY           SKY/WX    TMP DP  RH WIND       PRES   REMARKS
MONTEVIDEO     CLOUDY    54  54 100 NW10      29.69R FOG
GRANITE FALLS  CLOUDY    55  54  97 S10       29.69R FOG
CANBY          CLOUDY    51  49  93 NW9       29.72R
MARSHALL       CLOUDY    55  48  76 W17       29.69R
REDWOOD FALLS  CLOUDY    55  54  96 S10       29.68S FOG
OLIVIA         CLOUDY    52  50  93 S10       29.67S FOG
PIPESTONE      CLOUDY    52  52 100 W13       29.72R FOG
WINDOM         CLOUDY    55  54  94 S8        29.71S
WORTHINGTON    CLOUDY    54  52  94 SW8       29.72R
JACKSON        FOG       54  52  94 S7        29.73R VSB 1/4
TRACY          CLOUDY    56  55  94 SW9       29.70R FOG
SLAYTON        CLOUDY    54  54 100 W9        29.71S FOG
$$
MNZ065>067-074>077-082>085-091>093-191300-
   South Central Minnesota

CITY           SKY/WX    TMP DP  RH WIND       PRES   REMARKS
MANKATO        CLOUDY    52  46  82 S9        29.72F
NEW ULM        MOCLDY    54  54 100 S8        29.70S FOG
ST JAMES       CLOUDY    55  54  94 S8        29.72S FOG
FAIRMONT       CLOUDY    54  45  71 S6        29.72S
GLENCOE        CLOUDY    52  51  98 SE9       29.70S
FARIBAULT      RAIN      52  46  82 SE7       29.74S
OWATONNA       DRIZZLE   52  46  82 SE14      29.73F
ALBERT LEA     LGT RAIN  52  52 100 S7        29.75R
$$
MNZ078>079-086>088-094>096-191300-
   Southeast Minnesota

CITY           SKY/WX    TMP DP  RH WIND       PRES   REMARKS
ROCHESTER      CLOUDY    49  43  80 S10       29.77R
6HR MIN TEMP:  48; 6HR MAX TEMP:  53; 6HR PCP:  0.10;

RED WING       CLOUDY    50  37  62 SE3       29.75S
STANTON        LGT RAIN  50  46  83 S5        29.73F
DODGE CENTER   CLOUDY    50  45  81 S8        29.74F
WINONA         CLOUDY    50  36  57 SE9       29.79S
AUSTIN         CLOUDY    50  45  81 S3        29.75S
PRESTON        CLOUDY    49  40  71 SE8       29.77S
$$
ABBREVIATIONS USED IN REMARKS
   TC - TEMPERATURES IN CELSIUS
  WCI - WIND CHILL INDEX
   HX - HEAT INDEX
  VSB - VISIBILITY
$$


USA.gov is the U.S. government's official web portal to all federal, state and local government web resources and services.